Hourly Data Report for January 20, 2020

TORONTO CITY
ONTARIO
Current Station Operator: ECCC - MSC

43°40'00.000" N
79°24'00.000" W
112.50 m
6158355
71508
XTO

Download Data

Hourly Data (January 2020)
Hourly Data Report for January 20, 2020
TIME
LST
Temp Definition
°C
Dew Point Definition
°C
Rel Hum Definition
%
Precip. Amount Definition
mm

Wind Dir Definition
10's deg

Wind Spd Definition
km/h
Visibility Definition
km
Stn Press Definition
kPa
Hmdx Definition


Wind Chill Definition


Weather Definition


00:00 -9.6 -16.8 56 0.0       101.14     LegendNANA
01:00 -10.4 -16.5 61 0.0       101.18     LegendNANA
02:00 -10.8 -16.7 61 0.0       101.22     LegendNANA
03:00 -11.4 -16.8 65 0.0       101.27     LegendNANA
04:00 -12.2 -17.1 67 0.0       101.37     LegendNANA
05:00 -12.5 -17.2 68 0.0       101.43     LegendNANA
06:00 -12.7 -17.4 68 0.2       101.53     LegendNANA
07:00 -13.0 -17.9 67 0.0       101.63     LegendNANA
08:00 -12.8 -17.8 66 0.0       101.67     LegendNANA
09:00 -11.6 -16.7 66 0.0       101.77     LegendNANA
10:00 -9.7 -15.4 63 0.0       101.84     LegendNANA
11:00 -8.4 -15.8 55 0.0       101.86     LegendNANA
12:00 -7.5 -14.0 60 0.0       101.84     LegendNANA
13:00 -6.4 -14.0 55 0.0       101.80     LegendNANA
14:00 -5.8 -13.9 53 0.4       101.74     LegendNANA
15:00 -5.7 -12.3 60 0.0       101.72     LegendNANA
16:00 -4.7 -14.4 47 0.0       101.72     LegendNANA
17:00 -4.9 -12.7 54 0.0       101.71     LegendNANA
18:00 -4.8 -11.3 60 0.0       101.75     LegendNANA
19:00 -5.2 -10.6 65 0.0       101.76     LegendNANA
20:00 -5.7 -10.6 68 0.0       101.73     LegendNANA
21:00 -6.1 -10.4 72 0.0       101.73     LegendNANA
22:00 -6.5 -10.3 74 0.0       101.74     LegendNANA
23:00 -6.8 -10.2 77 0.0       101.77     LegendNANA

Notes on Data Quality.

Legend

  • E = Estimated
  • M = Missing
  • NA = Not Available*
  • [empty] = Indicates an unobserved value
Date modified: